Time,TemperatureF,DewpointF,PressureIn,WindDirection,WindDirectionDegrees,WindSpeedMPH,WindSpeedGustMPH,Humidity,HourlyPrecipIn,Conditions,Clouds,dailyrainin,SoftwareType,DateUTC
2013-01-15 00:03:00,15.4,0.9,30.29,NNW,328,1.0,3.0,52,0.00,,,0.00,Wunderground v.1.15,2013-01-15 07:03:00,
2013-01-15 00:09:00,15.5,1.0,30.29,NNE,20,2.0,3.0,52,0.00,,,0.00,Wunderground v.1.15,2013-01-15 07:09:00,
2013-01-15 00:14:00,15.4,0.9,30.29,North,6,2.0,2.0,52,0.00,,,0.00,Wunderground v.1.15,2013-01-15 07:14:00,
2013-01-15 00:20:00,15.3,0.8,30.29,NNE,15,2.0,2.0,52,0.00,,,0.00,Wunderground v.1.15,2013-01-15 07:20:00,
2013-01-15 00:25:00,15.4,0.5,30.29,NNE,18,2.0,3.0,51,0.00,,,0.00,Wunderground v.1.15,2013-01-15 07:25:00,
2013-01-15 00:31:00,15.2,0.3,30.29,NNE,16,3.0,3.0,51,0.00,,,0.00,Wunderground v.1.15,2013-01-15 07:31:00,
2013-01-15 00:36:00,14.9,0.4,30.29,NNW,330,1.0,3.0,52,0.00,,,0.00,Wunderground v.1.15,2013-01-15 07:36:00,
2013-01-15 00:41:00,14.5,0.0,30.29,North,8,1.0,2.0,52,0.00,,,0.00,Wunderground v.1.15,2013-01-15 07:41:00,
2013-01-15 00:47:00,14.0,0.0,30.29,North,1,1.0,2.0,53,0.00,,,0.00,Wunderground v.1.15,2013-01-15 07:47:00,
2013-01-15 00:52:00,13.8,-0.2,30.29,NNE,18,1.0,1.0,53,0.00,,,0.00,Wunderground v.1.15,2013-01-15 07:52:00,
2013-01-15 00:57:00,13.7,-0.3,30.29,NNE,18,2.0,2.0,53,0.00,,,0.00,Wunderground v.1.15,2013-01-15 07:57:00,
2013-01-15 01:03:00,13.6,0.0,30.30,NNE,30,2.0,2.0,54,0.00,,,0.00,Wunderground v.1.15,2013-01-15 08:03:00,
2013-01-15 01:08:00,13.5,-0.1,30.30,NE,37,0.0,2.0,54,0.00,,,0.00,Wunderground v.1.15,2013-01-15 08:08:00,
2013-01-15 01:15:00,13.8,0.2,30.30,NNE,27,0.0,1.0,54,0.00,,,0.00,Wunderground v.1.15,2013-01-15 08:15:00,
2013-01-15 01:20:00,13.8,0.2,30.30,NNE,15,2.0,2.0,54,0.00,,,0.00,Wunderground v.1.15,2013-01-15 08:20:00,
2013-01-15 01:26:00,13.7,0.1,30.30,NNW,343,0.0,3.0,54,0.00,,,0.00,Wunderground v.1.15,2013-01-15 08:26:00,
2013-01-15 01:31:00,13.8,0.2,30.30,North,11,2.0,2.0,54,0.00,,,0.00,Wunderground v.1.15,2013-01-15 08:31:00,
2013-01-15 01:37:00,13.9,-0.1,30.31,North,360,1.0,2.0,53,0.00,,,0.00,Wunderground v.1.15,2013-01-15 08:37:00,
2013-01-15 01:43:00,14.0,0.0,30.31,NNE,15,0.0,2.0,53,0.00,,,0.00,Wunderground v.1.15,2013-01-15 08:43:00,
2013-01-15 01:48:00,14.3,0.3,30.31,NNE,26,0.0,2.0,53,0.00,,,0.00,Wunderground v.1.15,2013-01-15 08:48:00,
2013-01-15 01:54:00,14.2,-0.2,30.31,NNE,30,2.0,2.0,52,0.00,,,0.00,Wunderground v.1.15,2013-01-15 08:54:00,
2013-01-15 01:59:00,13.7,-0.3,30.31,NNE,30,1.0,2.0,53,0.00,,,0.00,Wunderground v.1.15,2013-01-15 08:59:00,
2013-01-15 02:04:00,13.4,-0.2,30.31,NNE,30,1.0,2.0,54,0.00,,,0.00,Wunderground v.1.15,2013-01-15 09:04:00,
2013-01-15 02:09:00,13.2,-0.4,30.31,NNE,16,0.0,2.0,54,0.00,,,0.00,Wunderground v.1.15,2013-01-15 09:09:00,
2013-01-15 02:14:00,13.2,0.0,30.31,NNE,18,1.0,1.0,55,0.00,,,0.00,Wunderground v.1.15,2013-01-15 09:14:00,
2013-01-15 02:19:00,13.4,0.2,30.31,NNW,338,1.0,2.0,55,0.00,,,0.00,Wunderground v.1.15,2013-01-15 09:19:00,
2013-01-15 02:24:00,13.5,-0.1,30.31,NNW,335,1.0,2.0,54,0.00,,,0.00,Wunderground v.1.15,2013-01-15 09:24:00,
2013-01-15 02:29:00,13.1,-0.1,30.31,North,1,0.0,2.0,55,0.00,,,0.00,Wunderground v.1.15,2013-01-15 09:29:00,
2013-01-15 02:34:00,12.8,-0.3,30.32,North,10,0.0,1.0,55,0.00,,,0.00,Wunderground v.1.15,2013-01-15 09:34:00,
2013-01-15 02:39:00,12.8,0.0,30.32,NNE,15,0.0,1.0,56,0.00,,,0.00,Wunderground v.1.15,2013-01-15 09:39:00,
2013-01-15 02:44:00,12.9,0.1,30.32,NNW,332,0.0,0.0,56,0.00,,,0.00,Wunderground v.1.15,2013-01-15 09:44:00,
2013-01-15 02:49:00,13.1,-0.1,30.32,NNW,327,0.0,0.0,55,0.00,,,0.00,Wunderground v.1.15,2013-01-15 09:49:00,
2013-01-15 02:54:00,13.1,-0.1,30.32,North,355,0.0,0.0,55,0.00,,,0.00,Wunderground v.1.15,2013-01-15 09:54:00,
2013-01-15 02:59:00,12.9,-0.3,30.33,NNW,339,0.0,0.0,55,0.00,,,0.00,Wunderground v.1.15,2013-01-15 09:59:00,
2013-01-15 03:04:00,12.8,-0.3,30.32,NNW,344,1.0,2.0,55,0.00,,,0.00,Wunderground v.1.15,2013-01-15 10:04:00,
2013-01-15 03:09:00,12.6,-0.5,30.33,North,8,2.0,2.0,55,0.00,,,0.00,Wunderground v.1.15,2013-01-15 10:09:00,
2013-01-15 03:14:00,12.3,-0.4,30.33,NE,44,1.0,3.0,56,0.00,,,0.00,Wunderground v.1.15,2013-01-15 10:14:00,
2013-01-15 03:19:00,12.2,-0.1,30.34,NNE,30,2.0,3.0,57,0.00,,,0.00,Wunderground v.1.15,2013-01-15 10:19:00,
2013-01-15 03:24:00,12.2,-0.1,30.34,NE,34,2.0,3.0,57,0.00,,,0.00,Wunderground v.1.15,2013-01-15 10:24:00,
2013-01-15 03:29:00,12.1,-0.2,30.34,NNE,30,2.0,3.0,57,0.00,,,0.00,Wunderground v.1.15,2013-01-15 10:29:00,
2013-01-15 03:34:00,12.2,-0.1,30.34,NNE,27,2.0,3.0,57,0.00,,,0.00,Wunderground v.1.15,2013-01-15 10:34:00,
2013-01-15 03:39:00,12.1,-0.2,30.34,NNE,28,2.0,3.0,57,0.00,,,0.00,Wunderground v.1.15,2013-01-15 10:39:00,
2013-01-15 03:44:00,12.2,-0.1,30.34,NNE,18,3.0,3.0,57,0.00,,,0.00,Wunderground v.1.15,2013-01-15 10:44:00,
2013-01-15 03:49:00,12.3,-0.1,30.34,NNE,18,1.0,3.0,57,0.00,,,0.00,Wunderground v.1.15,2013-01-15 10:49:00,
2013-01-15 03:54:00,12.3,-0.1,30.34,NNE,24,2.0,2.0,57,0.00,,,0.00,Wunderground v.1.15,2013-01-15 10:54:00,
2013-01-15 03:59:00,12.4,0.0,30.34,North,7,1.0,2.0,57,0.00,,,0.00,Wunderground v.1.15,2013-01-15 10:59:00,
2013-01-15 04:04:00,12.7,-0.1,30.34,NNE,23,3.0,4.0,56,0.00,,,0.00,Wunderground v.1.15,2013-01-15 11:04:00,
2013-01-15 04:09:00,13.2,0.4,30.34,NNE,19,4.0,4.0,56,0.00,,,0.00,Wunderground v.1.15,2013-01-15 11:09:00,
2013-01-15 04:14:00,13.4,0.2,30.33,North,8,1.0,3.0,55,0.00,,,0.00,Wunderground v.1.15,2013-01-15 11:14:00,
2013-01-15 04:19:00,13.4,0.2,30.34,North,357,2.0,3.0,55,0.00,,,0.00,Wunderground v.1.15,2013-01-15 11:19:00,
2013-01-15 04:24:00,13.4,0.2,30.33,North,357,0.0,2.0,55,0.00,,,0.00,Wunderground v.1.15,2013-01-15 11:24:00,
2013-01-15 04:29:00,13.2,0.0,30.33,North,359,0.0,2.0,55,0.00,,,0.00,Wunderground v.1.15,2013-01-15 11:29:00,
2013-01-15 04:34:00,13.0,-0.2,30.34,North,359,0.0,1.0,55,0.00,,,0.00,Wunderground v.1.15,2013-01-15 11:34:00,
2013-01-15 04:39:00,12.9,-0.3,30.34,North,3,0.0,1.0,55,0.00,,,0.00,Wunderground v.1.15,2013-01-15 11:39:00,
2013-01-15 04:44:00,12.6,-0.2,30.34,North,4,1.0,2.0,56,0.00,,,0.00,Wunderground v.1.15,2013-01-15 11:44:00,
2013-01-15 04:49:00,12.4,0.0,30.34,NNE,18,1.0,2.0,57,0.00,,,0.00,Wunderground v.1.15,2013-01-15 11:49:00,
2013-01-15 04:54:00,12.3,0.3,30.34,NNE,23,0.0,2.0,58,0.00,,,0.00,Wunderground v.1.15,2013-01-15 11:54:00,
2013-01-15 04:59:00,12.2,0.6,30.34,NNE,23,1.0,2.0,59,0.00,,,0.00,Wunderground v.1.15,2013-01-15 11:59:00,
2013-01-15 05:04:00,12.2,0.6,30.34,NNE,27,1.0,3.0,59,0.00,,,0.00,Wunderground v.1.15,2013-01-15 12:04:00,
2013-01-15 05:09:00,12.2,0.9,30.34,NNE,24,1.0,3.0,60,0.00,,,0.00,Wunderground v.1.15,2013-01-15 12:09:00,
2013-01-15 05:14:00,12.4,1.1,30.35,NNE,28,0.0,2.0,60,0.00,,,0.00,Wunderground v.1.15,2013-01-15 12:14:00,
2013-01-15 05:19:00,12.5,1.2,30.35,NNE,29,0.0,2.0,60,0.00,,,0.00,Wunderground v.1.15,2013-01-15 12:19:00,
2013-01-15 05:24:00,12.4,1.5,30.35,NNE,28,0.0,1.0,61,0.00,,,0.00,Wunderground v.1.15,2013-01-15 12:24:00,
2013-01-15 05:29:00,12.4,1.5,30.35,NNE,27,0.0,1.0,61,0.00,,,0.00,Wunderground v.1.15,2013-01-15 12:29:00,
2013-01-15 05:34:00,12.4,1.5,30.35,NNE,27,0.0,0.0,61,0.00,,,0.00,Wunderground v.1.15,2013-01-15 12:34:00,
2013-01-15 05:39:00,12.8,1.5,30.36,North,4,0.0,0.0,60,0.00,,,0.00,Wunderground v.1.15,2013-01-15 12:39:00,
2013-01-15 05:44:00,13.3,1.6,30.36,NNW,327,0.0,0.0,59,0.00,,,0.00,Wunderground v.1.15,2013-01-15 12:44:00,
2013-01-15 05:49:00,13.3,1.6,30.36,NW,322,0.0,0.0,59,0.00,,,0.00,Wunderground v.1.15,2013-01-15 12:49:00,
2013-01-15 05:54:00,12.8,1.5,30.36,NW,311,4.0,4.0,60,0.00,,,0.00,Wunderground v.1.15,2013-01-15 12:54:00,
2013-01-15 05:59:00,13.6,3.0,30.37,NNW,342,1.0,4.0,62,0.00,,,0.00,Wunderground v.1.15,2013-01-15 12:59:00,
2013-01-15 06:04:00,14.1,2.7,30.37,NNE,33,1.0,3.0,60,0.00,,,0.00,Wunderground v.1.15,2013-01-15 13:04:00,
2013-01-15 06:09:00,13.3,2.0,30.37,NNE,33,1.0,3.0,60,0.00,,,0.00,Wunderground v.1.15,2013-01-15 13:09:00,
2013-01-15 06:14:00,13.5,2.5,30.37,NNW,336,1.0,2.0,61,0.00,,,0.00,Wunderground v.1.15,2013-01-15 13:14:00,
2013-01-15 06:19:00,13.5,2.5,30.38,NNW,332,1.0,2.0,61,0.00,,,0.00,Wunderground v.1.15,2013-01-15 13:19:00,
2013-01-15 06:24:00,13.3,2.3,30.38,NNW,334,0.0,1.0,61,0.00,,,0.00,Wunderground v.1.15,2013-01-15 13:24:00,
2013-01-15 06:29:00,13.2,2.6,30.38,NNW,334,0.0,1.0,62,0.00,,,0.00,Wunderground v.1.15,2013-01-15 13:29:00,
2013-01-15 06:35:00,13.1,2.5,30.39,North,356,0.0,0.0,62,0.00,,,0.00,Wunderground v.1.15,2013-01-15 13:35:00,
2013-01-15 06:40:00,13.0,2.8,30.39,North,354,0.0,0.0,63,0.00,,,0.00,Wunderground v.1.15,2013-01-15 13:40:00,
2013-01-15 06:45:00,12.7,2.5,30.39,NNE,13,0.0,0.0,63,0.00,,,0.00,Wunderground v.1.15,2013-01-15 13:45:00,
2013-01-15 06:50:00,12.5,2.3,30.40,NNE,13,0.0,0.0,63,0.00,,,0.00,Wunderground v.1.15,2013-01-15 13:50:00,
2013-01-15 06:55:00,12.3,2.4,30.40,NNE,18,1.0,2.0,64,0.00,,,0.00,Wunderground v.1.15,2013-01-15 13:55:00,
2013-01-15 07:00:00,12.0,2.5,30.40,NNE,12,1.0,1.0,65,0.00,,,0.00,Wunderground v.1.15,2013-01-15 14:00:00,
2013-01-15 07:05:00,11.7,2.5,30.40,NNW,345,2.0,3.0,66,0.00,,,0.00,Wunderground v.1.15,2013-01-15 14:05:00,
2013-01-15 07:09:00,11.8,2.9,30.40,NNW,338,1.0,2.0,67,0.00,,,0.00,Wunderground v.1.15,2013-01-15 14:09:00,
2013-01-15 07:14:00,11.8,2.9,30.40,NNW,327,1.0,3.0,67,0.00,,,0.00,Wunderground v.1.15,2013-01-15 14:14:00,
2013-01-15 07:20:00,11.9,3.0,30.40,North,7,1.0,3.0,67,0.00,,,0.00,Wunderground v.1.15,2013-01-15 14:20:00,
2013-01-15 07:25:00,11.7,2.8,30.41,NNE,13,1.0,2.0,67,0.00,,,0.00,Wunderground v.1.15,2013-01-15 14:25:00,
2013-01-15 07:30:00,11.5,2.7,30.41,NNE,12,1.0,1.0,67,0.00,,,0.00,Wunderground v.1.15,2013-01-15 14:30:00,
2013-01-15 07:35:00,11.6,2.8,30.41,North,356,0.0,1.0,67,0.00,,,0.00,Wunderground v.1.15,2013-01-15 14:35:00,
2013-01-15 07:40:00,12.1,3.2,30.41,North,349,0.0,0.0,67,0.00,,,0.00,Wunderground v.1.15,2013-01-15 14:40:00,
2013-01-15 07:45:00,12.4,3.2,30.41,North,349,0.0,1.0,66,0.00,,,0.00,Wunderground v.1.15,2013-01-15 14:45:00,
2013-01-15 07:50:00,12.7,3.5,30.42,North,359,0.0,0.0,66,0.00,,,0.00,Wunderground v.1.15,2013-01-15 14:50:00,
2013-01-15 07:55:00,13.3,4.1,30.42,North,4,0.0,0.0,66,0.00,,,0.00,Wunderground v.1.15,2013-01-15 14:55:00,
2013-01-15 08:00:00,14.3,4.7,30.42,NNW,344,0.0,0.0,65,0.00,,,0.00,Wunderground v.1.15,2013-01-15 15:00:00,
2013-01-15 08:05:00,15.3,5.3,30.42,North,349,0.0,0.0,64,0.00,,,0.00,Wunderground v.1.15,2013-01-15 15:05:00,
2013-01-15 08:10:00,16.2,5.5,30.43,WNW,295,1.0,1.0,62,0.00,,,0.00,Wunderground v.1.15,2013-01-15 15:10:00,
2013-01-15 08:14:00,17.1,5.6,30.43,NW,313,0.0,2.0,60,0.00,,,0.00,Wunderground v.1.15,2013-01-15 15:14:00,
2013-01-15 08:19:00,17.9,5.6,30.43,NW,306,0.0,2.0,58,0.00,,,0.00,Wunderground v.1.15,2013-01-15 15:19:00,
2013-01-15 08:25:00,18.5,5.4,30.43,NW,317,1.0,3.0,56,0.00,,,0.00,Wunderground v.1.15,2013-01-15 15:25:00,
2013-01-15 08:30:00,18.9,5.4,30.44,NW,319,0.0,1.0,55,0.00,,,0.00,Wunderground v.1.15,2013-01-15 15:30:00,
2013-01-15 08:35:00,19.4,5.4,30.44,NW,316,1.0,2.0,54,0.00,,,0.00,Wunderground v.1.15,2013-01-15 15:35:00,
2013-01-15 08:40:00,19.8,5.4,30.44,WNW,293,1.0,1.0,53,0.00,,,0.00,Wunderground v.1.15,2013-01-15 15:40:00,
2013-01-15 08:45:00,20.3,5.0,30.44,WNW,288,2.0,4.0,51,0.00,,,0.00,Wunderground v.1.15,2013-01-15 15:45:00,
2013-01-15 08:50:00,20.8,5.1,30.44,WNW,301,4.0,4.0,50,0.00,,,0.00,Wunderground v.1.15,2013-01-15 15:50:00,
2013-01-15 08:55:00,21.4,5.2,30.44,NW,309,5.0,6.0,49,0.00,,,0.00,Wunderground v.1.15,2013-01-15 15:55:00,
2013-01-15 09:00:00,22.0,4.8,30.45,NW,326,2.0,4.0,47,0.00,,,0.00,Wunderground v.1.15,2013-01-15 16:00:00,
2013-01-15 09:04:00,22.5,4.3,30.45,NW,323,4.0,6.0,45,0.00,,,0.00,Wunderground v.1.15,2013-01-15 16:04:00,
2013-01-15 09:09:00,23.1,4.4,30.45,NW,309,3.0,7.0,44,0.00,,,0.00,Wunderground v.1.15,2013-01-15 16:09:00,
2013-01-15 09:14:00,23.6,4.3,30.45,WNW,294,1.0,7.0,43,0.00,,,0.00,Wunderground v.1.15,2013-01-15 16:14:00,
2013-01-15 09:19:00,23.9,4.1,30.45,WNW,292,3.0,7.0,42,0.00,,,0.00,Wunderground v.1.15,2013-01-15 16:19:00,
2013-01-15 09:24:00,24.3,3.9,30.45,NW,307,4.0,7.0,41,0.00,,,0.00,Wunderground v.1.15,2013-01-15 16:24:00,
2013-01-15 09:29:00,24.7,3.8,30.45,NW,314,2.0,7.0,40,0.00,,,0.00,Wunderground v.1.15,2013-01-15 16:29:00,
2013-01-15 09:34:00,25.3,4.3,30.45,WNW,295,3.0,6.0,40,0.00,,,0.00,Wunderground v.1.15,2013-01-15 16:34:00,
2013-01-15 09:39:00,25.6,4.0,30.45,NW,315,4.0,7.0,39,0.00,,,0.00,Wunderground v.1.15,2013-01-15 16:39:00,
2013-01-15 09:44:00,26.3,4.1,30.46,NW,316,6.0,8.0,38,0.00,,,0.00,Wunderground v.1.15,2013-01-15 16:44:00,
2013-01-15 09:49:00,26.5,4.3,30.45,NW,316,7.0,10.0,38,0.00,,,0.00,Wunderground v.1.15,2013-01-15 16:49:00,
2013-01-15 09:54:00,26.3,4.1,30.45,NW,314,6.0,7.0,38,0.00,,,0.00,Wunderground v.1.15,2013-01-15 16:54:00,
2013-01-15 09:59:00,26.9,4.6,30.45,NNE,31,3.0,7.0,38,0.00,,,0.00,Wunderground v.1.15,2013-01-15 16:59:00,
2013-01-15 10:04:00,27.2,4.9,30.45,West,277,3.0,6.0,38,0.00,,,0.00,Wunderground v.1.15,2013-01-15 17:04:00,
2013-01-15 10:09:00,27.4,5.1,30.45,West,281,5.0,8.0,38,0.00,,,0.00,Wunderground v.1.15,2013-01-15 17:09:00,
2013-01-15 10:15:00,27.9,3.7,30.45,WNW,288,2.0,7.0,35,0.00,,,0.00,Wunderground v.1.15,2013-01-15 17:15:00,
2013-01-15 10:20:00,28.3,3.5,30.45,WNW,288,1.0,3.0,34,0.00,,,0.00,Wunderground v.1.15,2013-01-15 17:20:00,
2013-01-15 10:25:00,28.8,3.3,30.45,NW,304,4.0,7.0,33,0.00,,,0.00,Wunderground v.1.15,2013-01-15 17:25:00,
2013-01-15 10:30:00,28.6,3.7,30.44,WNW,295,5.0,5.0,34,0.00,,,0.00,Wunderground v.1.15,2013-01-15 17:30:00,
2013-01-15 10:35:00,29.2,3.6,30.45,WNW,295,2.0,6.0,33,0.00,,,0.00,Wunderground v.1.15,2013-01-15 17:35:00,
2013-01-15 10:40:00,29.7,4.1,30.44,West,275,4.0,5.0,33,0.00,,,0.00,Wunderground v.1.15,2013-01-15 17:40:00,
2013-01-15 10:45:00,29.6,4.0,30.44,NW,314,5.0,12.0,33,0.00,,,0.00,Wunderground v.1.15,2013-01-15 17:45:00,
2013-01-15 10:50:00,29.8,3.5,30.44,NW,318,6.0,6.0,32,0.00,,,0.00,Wunderground v.1.15,2013-01-15 17:50:00,
2013-01-15 10:55:00,29.8,3.5,30.44,NW,307,5.0,11.0,32,0.00,,,0.00,Wunderground v.1.15,2013-01-15 17:55:00,
2013-01-15 11:00:00,29.3,3.7,30.44,SW,227,8.0,8.0,33,0.00,,,0.00,Wunderground v.1.15,2013-01-15 18:00:00,
2013-01-15 11:05:00,29.6,4.0,30.44,WNW,300,6.0,11.0,33,0.00,,,0.00,Wunderground v.1.15,2013-01-15 18:05:00,
2013-01-15 11:10:00,30.0,3.7,30.44,NW,324,3.0,6.0,32,0.00,,,0.00,Wunderground v.1.15,2013-01-15 18:10:00,
2013-01-15 11:15:00,30.2,3.8,30.44,NNW,348,3.0,8.0,32,0.00,,,0.00,Wunderground v.1.15,2013-01-15 18:15:00,
2013-01-15 11:20:00,30.6,4.2,30.43,WNW,298,4.0,4.0,32,0.00,,,0.00,Wunderground v.1.15,2013-01-15 18:20:00,
2013-01-15 11:25:00,30.8,3.7,30.43,WNW,296,5.0,9.0,31,0.00,,,0.00,Wunderground v.1.15,2013-01-15 18:25:00,
2013-01-15 11:30:00,31.2,3.3,30.44,NW,319,5.0,5.0,30,0.00,,,0.00,Wunderground v.1.15,2013-01-15 18:30:00,
2013-01-15 11:35:00,31.0,3.1,30.43,WNW,288,0.0,7.0,30,0.00,,,0.00,Wunderground v.1.15,2013-01-15 18:35:00,
2013-01-15 11:40:00,31.2,1.8,30.43,West,280,1.0,4.0,28,0.00,,,0.00,Wunderground v.1.15,2013-01-15 18:40:00,
2013-01-15 11:45:00,31.8,1.6,30.43,NW,311,2.0,7.0,27,0.00,,,0.00,Wunderground v.1.15,2013-01-15 18:45:00,
2013-01-15 11:50:00,32.2,-0.6,30.43,NW,321,5.0,6.0,24,0.00,,,0.00,Wunderground v.1.15,2013-01-15 18:50:00,
2013-01-15 11:55:00,32.4,-0.4,30.42,NNW,328,3.0,7.0,24,0.00,,,0.00,Wunderground v.1.15,2013-01-15 18:55:00,
2013-01-15 12:00:00,33.4,-0.5,30.42,NW,319,4.0,5.0,23,0.00,,,0.00,Wunderground v.1.15,2013-01-15 19:00:00,
2013-01-15 12:05:00,33.5,0.5,30.42,NNW,345,5.0,7.0,24,0.00,,,0.00,Wunderground v.1.15,2013-01-15 19:05:00,
2013-01-15 12:10:00,33.9,-1.0,30.42,WNW,294,4.0,6.0,22,0.00,,,0.00,Wunderground v.1.15,2013-01-15 19:10:00,
2013-01-15 12:15:00,34.3,-2.7,30.42,NNW,333,3.0,10.0,20,0.00,,,0.00,Wunderground v.1.15,2013-01-15 19:15:00,
2013-01-15 12:20:00,34.1,-2.9,30.41,NNW,328,6.0,6.0,20,0.00,,,0.00,Wunderground v.1.15,2013-01-15 19:20:00,
2013-01-15 12:25:00,34.1,-3.9,30.41,NW,316,10.0,12.0,19,0.00,,,0.00,Wunderground v.1.15,2013-01-15 19:25:00,
2013-01-15 12:30:00,33.9,-3.0,30.41,WNW,302,4.0,7.0,20,0.00,,,0.00,Wunderground v.1.15,2013-01-15 19:30:00,
2013-01-15 12:35:00,34.4,-1.6,30.41,NNW,333,4.0,10.0,21,0.00,,,0.00,Wunderground v.1.15,2013-01-15 19:35:00,
2013-01-15 12:40:00,34.1,-2.9,30.40,NW,306,7.0,7.0,20,0.00,,,0.00,Wunderground v.1.15,2013-01-15 19:40:00,
2013-01-15 12:45:00,34.6,-1.4,30.40,NW,309,6.0,11.0,21,0.00,,,0.00,Wunderground v.1.15,2013-01-15 19:45:00,
2013-01-15 12:50:00,34.9,-2.2,30.40,WNW,285,8.0,9.0,20,0.00,,,0.00,Wunderground v.1.15,2013-01-15 19:50:00,
2013-01-15 12:55:00,34.8,-2.3,30.40,WNW,302,7.0,12.0,20,0.00,,,0.00,Wunderground v.1.15,2013-01-15 19:55:00,
2013-01-15 13:00:00,34.6,-2.4,30.40,NW,311,6.0,7.0,20,0.00,,,0.00,Wunderground v.1.15,2013-01-15 20:00:00,
2013-01-15 13:05:00,34.7,-2.4,30.40,NW,316,5.0,9.0,20,0.00,,,0.00,Wunderground v.1.15,2013-01-15 20:05:00,
2013-01-15 13:10:00,34.9,-2.2,30.40,NW,323,3.0,6.0,20,0.00,,,0.00,Wunderground v.1.15,2013-01-15 20:10:00,
2013-01-15 13:15:00,35.0,-1.1,30.40,NNW,332,6.0,13.0,21,0.00,,,0.00,Wunderground v.1.15,2013-01-15 20:15:00,
2013-01-15 13:20:00,35.0,-0.1,30.39,NNW,343,6.0,7.0,22,0.00,,,0.00,Wunderground v.1.15,2013-01-15 20:20:00,
2013-01-15 13:25:00,35.0,-1.1,30.39,NW,313,6.0,11.0,21,0.00,,,0.00,Wunderground v.1.15,2013-01-15 20:25:00,
2013-01-15 13:30:00,35.2,0.1,30.39,NW,314,10.0,10.0,22,0.00,,,0.00,Wunderground v.1.15,2013-01-15 20:30:00,
2013-01-15 13:35:00,35.3,0.2,30.38,North,353,6.0,11.0,22,0.00,,,0.00,Wunderground v.1.15,2013-01-15 20:35:00,
2013-01-15 13:40:00,35.6,0.4,30.39,North,352,7.0,7.0,22,0.00,,,0.00,Wunderground v.1.15,2013-01-15 20:40:00,
2013-01-15 13:45:00,35.9,-0.3,30.40,NNW,346,7.0,12.0,21,0.00,,,0.00,Wunderground v.1.15,2013-01-15 20:45:00,
2013-01-15 13:50:00,36.3,0.0,30.39,West,263,6.0,8.0,21,0.00,,,0.00,Wunderground v.1.15,2013-01-15 20:50:00,
2013-01-15 13:55:00,36.8,-0.6,30.39,NW,323,6.0,12.0,20,0.00,,,0.00,Wunderground v.1.15,2013-01-15 20:55:00,
2013-01-15 14:00:00,36.8,-1.7,30.39,NW,317,12.0,12.0,19,0.00,,,0.00,Wunderground v.1.15,2013-01-15 21:00:00,
2013-01-15 14:05:00,37.0,-1.5,30.39,NW,309,9.0,14.0,19,0.00,,,0.00,Wunderground v.1.15,2013-01-15 21:05:00,
2013-01-15 14:10:00,37.1,-1.4,30.39,WNW,302,13.0,13.0,19,0.00,,,0.00,Wunderground v.1.15,2013-01-15 21:10:00,
2013-01-15 14:15:00,37.3,-2.4,30.39,WNW,293,8.0,16.0,18,0.00,,,0.00,Wunderground v.1.15,2013-01-15 21:15:00,
2013-01-15 14:20:00,37.6,-2.2,30.39,WNW,302,10.0,14.0,18,0.00,,,0.00,Wunderground v.1.15,2013-01-15 21:20:00,
2013-01-15 14:25:00,37.3,-2.4,30.39,NW,321,11.0,15.0,18,0.00,,,0.00,Wunderground v.1.15,2013-01-15 21:25:00,
2013-01-15 14:30:00,37.7,-4.6,30.38,NNE,14,7.0,9.0,16,0.00,,,0.00,Wunderground v.1.15,2013-01-15 21:30:00,
2013-01-15 14:35:00,38.0,-4.3,30.39,North,349,6.0,14.0,16,0.00,,,0.00,Wunderground v.1.15,2013-01-15 21:35:00,
2013-01-15 14:40:00,37.8,-4.5,30.39,NNW,327,10.0,10.0,16,0.00,,,0.00,Wunderground v.1.15,2013-01-15 21:40:00,
2013-01-15 14:45:00,37.6,-6.0,30.39,NW,315,11.0,14.0,15,0.00,,,0.00,Wunderground v.1.15,2013-01-15 21:45:00,
2013-01-15 14:50:00,37.3,-4.9,30.39,NW,313,6.0,11.0,16,0.00,,,0.00,Wunderground v.1.15,2013-01-15 21:50:00,
2013-01-15 14:55:00,37.5,-4.7,30.39,WNW,302,9.0,13.0,16,0.00,,,0.00,Wunderground v.1.15,2013-01-15 21:55:00,
2013-01-15 15:00:00,37.4,-6.1,30.40,WNW,294,11.0,12.0,15,0.00,,,0.00,Wunderground v.1.15,2013-01-15 22:00:00,
2013-01-15 15:05:00,37.5,-6.1,30.40,NW,318,10.0,12.0,15,0.00,,,0.00,Wunderground v.1.15,2013-01-15 22:05:00,
2013-01-15 15:10:00,37.6,-6.0,30.40,NNW,332,11.0,12.0,15,0.00,,,0.00,Wunderground v.1.15,2013-01-15 22:10:00,
2013-01-15 15:15:00,37.4,-6.1,30.40,North,349,8.0,12.0,15,0.00,,,0.00,Wunderground v.1.15,2013-01-15 22:15:00,
2013-01-15 15:20:00,37.5,-4.7,30.41,NNW,330,9.0,10.0,16,0.00,,,0.00,Wunderground v.1.15,2013-01-15 22:20:00,
2013-01-15 15:25:00,37.5,-6.1,30.41,NW,324,9.0,13.0,15,0.00,,,0.00,Wunderground v.1.15,2013-01-15 22:25:00,
2013-01-15 15:30:00,37.8,-5.8,30.41,North,11,5.0,7.0,15,0.00,,,0.00,Wunderground v.1.15,2013-01-15 22:30:00,
2013-01-15 15:35:00,37.6,-6.0,30.41,NW,307,7.0,12.0,15,0.00,,,0.00,Wunderground v.1.15,2013-01-15 22:35:00,
2013-01-15 15:40:00,37.5,-6.1,30.41,NNW,339,7.0,9.0,15,0.00,,,0.00,Wunderground v.1.15,2013-01-15 22:40:00,
2013-01-15 15:45:00,37.6,-6.0,30.41,NW,323,5.0,12.0,15,0.00,,,0.00,Wunderground v.1.15,2013-01-15 22:45:00,
2013-01-15 15:50:00,37.5,-6.1,30.41,NNW,343,6.0,11.0,15,0.00,,,0.00,Wunderground v.1.15,2013-01-15 22:50:00,
2013-01-15 15:55:00,37.7,-5.9,30.42,NNW,338,9.0,12.0,15,0.00,,,0.00,Wunderground v.1.15,2013-01-15 22:55:00,
2013-01-15 16:00:00,37.7,-5.9,30.42,WNW,293,9.0,11.0,15,0.00,,,0.00,Wunderground v.1.15,2013-01-15 23:00:00,
2013-01-15 16:06:00,37.6,-4.6,30.42,WNW,303,7.0,12.0,16,0.00,,,0.00,Wunderground v.1.15,2013-01-15 23:06:00,
2013-01-15 16:11:00,37.7,-4.6,30.42,NW,316,7.0,8.0,16,0.00,,,0.00,Wunderground v.1.15,2013-01-15 23:11:00,
2013-01-15 16:16:00,38.0,-4.3,30.42,NW,316,7.0,10.0,16,0.00,,,0.00,Wunderground v.1.15,2013-01-15 23:16:00,
2013-01-15 16:21:00,37.7,-4.6,30.42,NW,321,4.0,7.0,16,0.00,,,0.00,Wunderground v.1.15,2013-01-15 23:21:00,
2013-01-15 16:26:00,37.5,-4.7,30.43,NW,311,4.0,11.0,16,0.00,,,0.00,Wunderground v.1.15,2013-01-15 23:26:00,
2013-01-15 16:31:00,37.1,-2.6,30.43,NNW,328,7.0,9.0,18,0.00,,,0.00,Wunderground v.1.15,2013-01-15 23:31:00,
2013-01-15 16:36:00,36.9,-2.7,30.43,NW,311,3.0,9.0,18,0.00,,,0.00,Wunderground v.1.15,2013-01-15 23:36:00,
2013-01-15 16:41:00,37.1,-2.6,30.43,NNW,330,5.0,9.0,18,0.00,,,0.00,Wunderground v.1.15,2013-01-15 23:41:00,
2013-01-15 16:46:00,36.8,-2.8,30.43,NW,310,2.0,9.0,18,0.00,,,0.00,Wunderground v.1.15,2013-01-15 23:46:00,
2013-01-15 16:51:00,36.8,-1.7,30.43,NW,316,5.0,6.0,19,0.00,,,0.00,Wunderground v.1.15,2013-01-15 23:51:00,
2013-01-15 16:56:00,36.6,-1.9,30.44,North,7,4.0,8.0,19,0.00,,,0.00,Wunderground v.1.15,2013-01-15 23:56:00,
2013-01-15 17:01:00,36.5,-1.9,30.43,NW,315,2.0,4.0,19,0.00,,,0.00,Wunderground v.1.15,2013-01-16 00:01:00,
2013-01-15 17:06:00,36.3,-1.0,30.44,NW,321,3.0,6.0,20,0.00,,,0.00,Wunderground v.1.15,2013-01-16 00:06:00,
2013-01-15 17:11:00,36.0,-1.3,30.44,NW,310,2.0,3.0,20,0.00,,,0.00,Wunderground v.1.15,2013-01-16 00:11:00,
2013-01-15 17:16:00,35.8,-2.5,30.44,NW,321,4.0,6.0,19,0.00,,,0.00,Wunderground v.1.15,2013-01-16 00:16:00,
2013-01-15 17:21:00,35.5,-1.7,30.44,NW,304,3.0,4.0,20,0.00,,,0.00,Wunderground v.1.15,2013-01-16 00:21:00,
2013-01-15 17:26:00,34.9,-2.2,30.44,NW,321,2.0,6.0,20,0.00,,,0.00,Wunderground v.1.15,2013-01-16 00:26:00,
2013-01-15 17:31:00,34.3,-2.7,30.44,NW,314,4.0,5.0,20,0.00,,,0.00,Wunderground v.1.15,2013-01-16 00:31:00,
2013-01-15 17:36:00,33.5,-2.3,30.44,NW,313,1.0,5.0,21,0.00,,,0.00,Wunderground v.1.15,2013-01-16 00:36:00,
2013-01-15 17:41:00,32.5,-3.2,30.44,NW,326,1.0,2.0,21,0.00,,,0.00,Wunderground v.1.15,2013-01-16 00:41:00,
2013-01-15 17:46:00,31.5,-3.1,30.44,North,351,0.0,2.0,22,0.00,,,0.00,Wunderground v.1.15,2013-01-16 00:46:00,
2013-01-15 17:51:00,30.8,-2.7,30.44,NW,319,0.0,0.0,23,0.00,,,0.00,Wunderground v.1.15,2013-01-16 00:51:00,
2013-01-15 17:56:00,30.2,-3.2,30.44,NW,319,0.0,0.0,23,0.00,,,0.00,Wunderground v.1.15,2013-01-16 00:56:00,
2013-01-15 18:01:00,29.6,-2.8,30.44,NW,311,1.0,2.0,24,0.00,,,0.00,Wunderground v.1.15,2013-01-16 01:01:00,
2013-01-15 18:06:00,28.9,-3.4,30.44,NW,316,1.0,2.0,24,0.00,,,0.00,Wunderground v.1.15,2013-01-16 01:06:00,
2013-01-15 18:11:00,28.3,-3.1,30.44,NW,325,0.0,2.0,25,0.00,,,0.00,Wunderground v.1.15,2013-01-16 01:11:00,
2013-01-15 18:16:00,27.5,-3.0,30.44,NNE,23,0.0,2.0,26,0.00,,,0.00,Wunderground v.1.15,2013-01-16 01:16:00,
2013-01-15 18:21:00,26.4,-3.1,30.44,ENE,77,0.0,1.0,27,0.00,,,0.00,Wunderground v.1.15,2013-01-16 01:21:00,
2013-01-15 18:26:00,26.0,-3.5,30.44,ENE,77,0.0,1.0,27,0.00,,,0.00,Wunderground v.1.15,2013-01-16 01:26:00,
2013-01-15 18:31:00,25.7,-3.7,30.45,ENE,77,0.0,0.0,27,0.00,,,0.00,Wunderground v.1.15,2013-01-16 01:31:00,
2013-01-15 18:36:00,24.7,-3.8,30.45,ENE,70,0.0,0.0,28,0.00,,,0.00,Wunderground v.1.15,2013-01-16 01:36:00,
2013-01-15 18:41:00,25.1,-3.5,30.45,ENE,69,0.0,0.0,28,0.00,,,0.00,Wunderground v.1.15,2013-01-16 01:41:00,
2013-01-15 18:46:00,24.2,-4.3,30.45,ENE,68,0.0,0.0,28,0.00,,,0.00,Wunderground v.1.15,2013-01-16 01:46:00,
2013-01-15 18:51:00,24.2,-3.5,30.46,ENE,68,0.0,0.0,29,0.00,,,0.00,Wunderground v.1.15,2013-01-16 01:51:00,
2013-01-15 18:56:00,24.8,-3.8,30.46,ENE,68,0.0,0.0,28,0.00,,,0.00,Wunderground v.1.15,2013-01-16 01:56:00,
2013-01-15 19:01:00,24.2,-4.3,30.46,ENE,68,0.0,0.0,28,0.00,,,0.00,Wunderground v.1.15,2013-01-16 02:01:00,
2013-01-15 19:06:00,23.6,-4.1,30.46,ENE,68,0.0,0.0,29,0.00,,,0.00,Wunderground v.1.15,2013-01-16 02:06:00,
2013-01-15 19:11:00,24.2,-3.5,30.46,ENE,68,0.0,0.0,29,0.00,,,0.00,Wunderground v.1.15,2013-01-16 02:11:00,
2013-01-15 19:16:00,23.3,-4.3,30.46,NE,53,0.0,0.0,29,0.00,,,0.00,Wunderground v.1.15,2013-01-16 02:16:00,
2013-01-15 19:21:00,22.6,-4.2,30.46,NE,38,0.0,0.0,30,0.00,,,0.00,Wunderground v.1.15,2013-01-16 02:21:00,
2013-01-15 19:26:00,22.3,-4.5,30.46,NE,39,0.0,1.0,30,0.00,,,0.00,Wunderground v.1.15,2013-01-16 02:26:00,
2013-01-15 19:31:00,21.7,-4.3,30.46,NE,38,0.0,0.0,31,0.00,,,0.00,Wunderground v.1.15,2013-01-16 02:31:00,
2013-01-15 19:36:00,21.4,-3.9,30.47,ENE,65,2.0,4.0,32,0.00,,,0.00,Wunderground v.1.15,2013-01-16 02:36:00,
2013-01-15 19:41:00,21.1,-3.6,30.47,ENE,65,0.0,1.0,33,0.00,,,0.00,Wunderground v.1.15,2013-01-16 02:41:00,
2013-01-15 19:46:00,20.8,-3.8,30.47,SE,124,0.0,2.0,33,0.00,,,0.00,Wunderground v.1.15,2013-01-16 02:46:00,
2013-01-15 19:51:00,20.9,-3.7,30.47,ENE,70,2.0,2.0,33,0.00,,,0.00,Wunderground v.1.15,2013-01-16 02:51:00,
2013-01-15 19:56:00,19.7,-3.6,30.48,ENE,70,1.0,2.0,35,0.00,,,0.00,Wunderground v.1.15,2013-01-16 02:56:00,
2013-01-15 20:01:00,19.5,-3.8,30.48,ENE,70,0.0,1.0,35,0.00,,,0.00,Wunderground v.1.15,2013-01-16 03:01:00,
2013-01-15 20:06:00,19.3,-3.3,30.48,SSE,150,0.0,2.0,36,0.00,,,0.00,Wunderground v.1.15,2013-01-16 03:06:00,
2013-01-15 20:11:00,20.3,-3.0,30.48,SSE,153,0.0,0.0,35,0.00,,,0.00,Wunderground v.1.15,2013-01-16 03:11:00,
2013-01-15 20:16:00,20.3,-3.7,30.49,NE,52,1.0,3.0,34,0.00,,,0.00,Wunderground v.1.15,2013-01-16 03:16:00,
2013-01-15 20:21:00,19.8,-3.5,30.49,NE,53,1.0,2.0,35,0.00,,,0.00,Wunderground v.1.15,2013-01-16 03:21:00,
2013-01-15 20:26:00,20.2,-3.1,30.49,East,83,0.0,2.0,35,0.00,,,0.00,Wunderground v.1.15,2013-01-16 03:26:00,
2013-01-15 20:31:00,20.1,-3.8,30.49,East,84,0.0,1.0,34,0.00,,,0.00,Wunderground v.1.15,2013-01-16 03:31:00,
2013-01-15 20:36:00,19.6,-3.7,30.49,ESE,120,0.0,1.0,35,0.00,,,0.00,Wunderground v.1.15,2013-01-16 03:36:00,
2013-01-15 20:41:00,19.9,-3.4,30.49,NW,314,0.0,0.0,35,0.00,,,0.00,Wunderground v.1.15,2013-01-16 03:41:00,
2013-01-15 20:46:00,20.4,-3.6,30.50,NW,326,0.0,3.0,34,0.00,,,0.00,Wunderground v.1.15,2013-01-16 03:46:00,
2013-01-15 20:51:00,20.7,-3.3,30.50,NW,326,0.0,0.0,34,0.00,,,0.00,Wunderground v.1.15,2013-01-16 03:51:00,
2013-01-15 20:56:00,20.1,-3.2,30.50,ENE,73,1.0,2.0,35,0.00,,,0.00,Wunderground v.1.15,2013-01-16 03:56:00,
2013-01-15 21:01:00,21.4,-2.7,30.50,ENE,74,0.0,0.0,34,0.00,,,0.00,Wunderground v.1.15,2013-01-16 04:01:00,
2013-01-15 21:06:00,21.3,-2.8,30.50,ENE,73,0.0,3.0,34,0.00,,,0.00,Wunderground v.1.15,2013-01-16 04:06:00,
2013-01-15 21:11:00,21.0,-3.0,30.50,ENE,76,1.0,1.0,34,0.00,,,0.00,Wunderground v.1.15,2013-01-16 04:11:00,
2013-01-15 21:16:00,20.3,-2.5,30.49,ENE,75,0.0,3.0,36,0.00,,,0.00,Wunderground v.1.15,2013-01-16 04:16:00,
2013-01-15 21:21:00,20.1,-2.6,30.50,ENE,77,1.0,3.0,36,0.00,,,0.00,Wunderground v.1.15,2013-01-16 04:21:00,
2013-01-15 21:26:00,19.8,-2.9,30.50,ENE,70,2.0,4.0,36,0.00,,,0.00,Wunderground v.1.15,2013-01-16 04:26:00,
2013-01-15 21:31:00,19.9,-2.2,30.50,East,84,1.0,2.0,37,0.00,,,0.00,Wunderground v.1.15,2013-01-16 04:31:00,
2013-01-15 21:36:00,19.9,-2.2,30.50,ENE,74,2.0,2.0,37,0.00,,,0.00,Wunderground v.1.15,2013-01-16 04:36:00,
2013-01-15 21:41:00,20.1,-2.1,30.50,ENE,73,1.0,2.0,37,0.00,,,0.00,Wunderground v.1.15,2013-01-16 04:41:00,
2013-01-15 21:46:00,20.0,-2.1,30.50,ENE,75,1.0,2.0,37,0.00,,,0.00,Wunderground v.1.15,2013-01-16 04:46:00,
2013-01-15 21:51:00,20.6,-2.2,30.49,ENE,68,1.0,2.0,36,0.00,,,0.00,Wunderground v.1.15,2013-01-16 04:51:00,
2013-01-15 21:56:00,20.4,-2.4,30.49,East,79,1.0,3.0,36,0.00,,,0.00,Wunderground v.1.15,2013-01-16 04:56:00,
2013-01-15 22:00:00,21.1,-1.7,30.49,East,84,2.0,2.0,36,0.00,,,0.00,Wunderground v.1.15,2013-01-16 05:00:00,
2013-01-15 22:01:00,21.6,-1.9,30.49,East,79,2.0,3.0,35,0.00,,,0.00,Wunderground v.1.15,2013-01-16 05:01:00,
2013-01-15 22:07:00,22.4,-1.8,30.49,East,90,1.0,3.0,34,0.00,,,0.00,Wunderground v.1.15,2013-01-16 05:07:00,
2013-01-15 22:12:00,24.2,-1.5,30.49,ESE,108,1.0,4.0,32,0.00,,,0.00,Wunderground v.1.15,2013-01-16 05:12:00,
2013-01-15 22:17:00,25.0,-2.1,30.50,ESE,106,2.0,4.0,30,0.00,,,0.00,Wunderground v.1.15,2013-01-16 05:17:00,
2013-01-15 22:22:00,25.6,-2.3,30.50,ESE,118,0.0,2.0,29,0.00,,,0.00,Wunderground v.1.15,2013-01-16 05:22:00,
2013-01-15 22:27:00,25.7,-3.0,30.50,SE,127,3.0,4.0,28,0.00,,,0.00,Wunderground v.1.15,2013-01-16 05:27:00,
2013-01-15 22:32:00,25.8,-2.9,30.50,East,94,1.0,2.0,28,0.00,,,0.00,Wunderground v.1.15,2013-01-16 05:32:00,
2013-01-15 22:37:00,26.1,-2.6,30.50,ESE,108,2.0,5.0,28,0.00,,,0.00,Wunderground v.1.15,2013-01-16 05:37:00,
2013-01-15 22:42:00,26.5,-3.0,30.50,ESE,102,3.0,3.0,27,0.00,,,0.00,Wunderground v.1.15,2013-01-16 05:42:00,
2013-01-15 22:47:00,27.0,-2.6,30.50,East,94,2.0,4.0,27,0.00,,,0.00,Wunderground v.1.15,2013-01-16 05:47:00,
2013-01-15 22:52:00,26.9,-3.5,30.49,ESE,123,2.0,2.0,26,0.00,,,0.00,Wunderground v.1.15,2013-01-16 05:52:00,
2013-01-15 22:57:00,26.1,-3.4,30.49,ESE,114,0.0,2.0,27,0.00,,,0.00,Wunderground v.1.15,2013-01-16 05:57:00,
2013-01-15 23:02:00,25.4,-3.2,30.49,ENE,63,0.0,1.0,28,0.00,,,0.00,Wunderground v.1.15,2013-01-16 06:02:00,
2013-01-15 23:07:00,25.6,-3.1,30.49,NNW,334,2.0,2.0,28,0.00,,,0.00,Wunderground v.1.15,2013-01-16 06:07:00,
2013-01-15 23:12:00,25.7,-3.7,30.49,NW,323,0.0,1.0,27,0.00,,,0.00,Wunderground v.1.15,2013-01-16 06:12:00,
2013-01-15 23:17:00,24.7,-3.8,30.49,NE,42,0.0,1.0,28,0.00,,,0.00,Wunderground v.1.15,2013-01-16 06:17:00,
2013-01-15 23:22:00,23.8,-3.9,30.50,NE,50,0.0,0.0,29,0.00,,,0.00,Wunderground v.1.15,2013-01-16 06:22:00,
2013-01-15 23:27:00,22.9,-3.3,30.49,NE,54,0.0,0.0,31,0.00,,,0.00,Wunderground v.1.15,2013-01-16 06:27:00,
2013-01-15 23:32:00,21.1,-4.2,30.50,ENE,70,0.0,0.0,32,0.00,,,0.00,Wunderground v.1.15,2013-01-16 06:32:00,
2013-01-15 23:37:00,20.2,-3.7,30.49,ENE,70,0.0,0.0,34,0.00,,,0.00,Wunderground v.1.15,2013-01-16 06:37:00,
2013-01-15 23:42:00,19.4,-3.3,30.50,ENE,70,1.0,2.0,36,0.00,,,0.00,Wunderground v.1.15,2013-01-16 06:42:00,
2013-01-15 23:47:00,18.8,-2.7,30.50,ENE,72,1.0,4.0,38,0.00,,,0.00,Wunderground v.1.15,2013-01-16 06:47:00,
2013-01-15 23:52:00,18.5,-2.9,30.50,ENE,72,0.0,1.0,38,0.00,,,0.00,Wunderground v.1.15,2013-01-16 06:52:00,
2013-01-15 23:57:00,18.8,-2.7,30.50,ENE,72,0.0,1.0,38,0.00,,,0.00,Wunderground v.1.15,2013-01-16 06:57:00,